Vertical_Velocity
-1 -1 -1 0 1 -3 -4 -2 0 -2 -3 -1 1 -0 -1 -1 1 3 3 1 1 0 1 1 1 -0 -0 0 1 2 1 1 1 -0 -1 -1 -1 -0 -1 -0 -1 -0 -1 -1 -0 0 -0 -1 -1
-0 -2 -1 1 0 -3 -1 4 -3 -1 -3 -2 2 -2 -1 -0 1 2 1 -1 0 -1 -1 1 1 1 0 -1 1 0 0 0 0 0 1 -0 -1 -0 -1 -1 -1 -1 -0 -0 -0 -0 -3 -0 -1
-1 0 -2 1 1 -4 0 2 -5 -1 -1 -3 -2 0 -1 -2 -2 2 0 -0 1 -0 -1 -0 -0 -1 -1 -1 1 0 1 0 0 0 -0 0 -0 -1 -1 -2 -1 -1 -1 -1 -0 -0 -0 -1 -1
-0 -2 -1 1 -3 -1 1 4 -3 -1 -0 -1 -2 -1 -1 -2 -2 1 1 -1 -0 -0 -0 -1 -0 0 0 0 0 -0 -0 -0 0 1 -0 -0 0 -0 -0 -1 -1 -1 -1 -2 -1 -0 -1 0 -1
-1 -0 -1 2 -0 -2 1 -1 -3 -0 -2 1 -1 -2 0 -2 -1 1 2 1 -1 -1 0 1 0 -0 -1 0 1 0 -0 -0 0 0 -0 -0 0 0 0 0 -0 -1 -1 -1 -1 -1 0 0 -2
-1 1 1 1 -3 0 5 -2 -1 3 -2 1 1 -2 -1 -4 0 -1 6 -0 -3 0 0 -0 0 -0 -0 -1 0 0 -0 -1 -1 -1 -0 -1 -0 0 1 0 0 0 0 -1 0 0 -1 -0 2
-2 0 -0 -0 -1 -0 4 -1 -2 -2 5 -2 2 -0 -1 -3 -2 -2 3 4 -2 -1 0 0 1 0 1 -0 -0 -0 0 -0 -0 -0 -1 -1 -1 -0 -0 -0 -0 0 0 -0 -1 -2 -1 -1 1
-0 1 -2 1 -0 -5 2 5 -2 -1 1 -1 0 4 -2 -1 -2 -4 4 2 2 -2 0 1 1 1 1 0 0 1 1 0 -0 -0 -0 -0 -0 -0 -0 -0 -1 -0 -0 -0 -0 -1 -3 -1 -3
0 -1 -2 -2 1 5 1 0 -0 -2 -1 -0 -0 1 -0 -1 -2 -3 3 1 4 -1 0 2 2 -0 2 1 0 -0 1 0 -0 -0 -1 -1 -1 -0 0 0 -0 -1 -0 0 0 -0 -1 -1 -0
-3 -1 2 -1 -2 4 -2 2 -1 -0 -2 2 2 -1 -2 -1 -0 -2 -4 -0 3 4 -2 2 1 -1 1 1 0 -0 -0 0 -0 -1 -1 -1 -1 -0 -1 -1 -0 -0 -1 -1 0 0 -0 -1 -0
0 1 1 -2 -0 1 2 -0 -1 -1 1 2 -3 1 -1 -1 -1 -1 -1 -3 -1 2 2 1 0 -1 1 1 0 1 0 -0 -0 -1 -1 -1 -1 -1 -1 -1 -1 -1 -1 -1 -1 0 0 0 -1
2 -2 0 0 0 -1 -1 2 1 -3 3 2 -1 -1 1 -1 -1 -1 -1 -1 -1 -0 1 1 1 0 0 1 1 0 0 -0 -0 -1 -1 -1 -1 -1 -1 -1 -1 -1 -0 -0 -0 -0 0 0 0
-1 0 -1 -0 0 0 -0 -0 -1 4 -1 1 2 -1 -0 -0 -0 -0 -1 -0 1 0 2 1 1 0 2 0 1 -1 -0 -0 -1 -1 -1 -1 -1 -1 -1 -1 -1 -0 -1 -0 -0 -1 -1 -0 0
-4 -0 -0 -0 0 -0 -0 1 -0 1 -1 1 1 0 0 -0 0 0 1 0 -1 1 2 -0 -0 -0 1 1 1 1 -1 -0 -1 -1 -1 -1 -1 -0 -1 -0 -1 -1 -1 -0 -0 -1 -1 -1 -0
-2 -1 1 0 0 -0 1 0 2 -2 1 -1 1 1 -1 -1 -1 -0 1 1 0 -0 1 -0 -0 1 1 1 -1 1 0 -1 -0 -1 -1 -1 -1 -1 -1 -0 -1 -1 -1 -1 -1 -0 -1 -1 -1
-1 -0 1 -1 0 -0 0 1 -1 1 0 1 -1 1 2 1 0 -0 -0 1 0 -1 1 1 -1 2 1 -0 -1 -0 0 -0 -0 -0 -1 -0 -0 -0 -0 -1 -0 -0 0 0 -0 -1 -1 -1 1
-1 1 2 2 -1 0 -0 2 -1 -2 -0 0 1 -2 -1 1 2 -1 -0 0 1 -2 -1 -0 -0 2 1 1 2 -0 0 -0 -0 -0 0 -0 -0 -0 -1 -1 -0 0 0 0 0 -1 -1 -1 -1
1 -1 0 4 -2 -1 2 -3 3 0 -0 -2 1 1 -4 -1 1 -0 -0 -0 1 -0 -0 0 2 1 1 1 2 0 -0 -1 -0 0 0 -0 -0 -0 -0 -1 -0 -0 0 1 1 1 -0 -0 -1
-2 1 4 -3 3 -2 -4 5 -5 -2 4 0 -4 2 -0 -2 -1 -0 -1 -0 0 -0 0 0 1 2 1 1 1 1 1 -1 0 -0 0 -0 0 0 0 -0 -0 1 1 1 1 1 1 -0 -1
-1 -1 1 -1 -2 -5 -2 5 3 -3 3 3 -1 -1 -1 0 -2 0 -0 0 1 0 0 -0 1 0 1 1 1 1 1 -1 0 -1 -1 0 0 0 -0 -0 -0 0 1 1 1 1 0 0 -0
0 2 1 -0 -0 -2 -1 1 4 4 -3 -1 -1 -2 -0 -0 -0 -0 -1 -0 1 0 -0 1 1 -1 1 1 0 -0 2 -0 2 1 -0 0 -0 -1 -0 -0 0 0 1 0 0 0 1 -0 0
-0 1 -2 -0 -2 -0 2 -9 8 -1 3 -1 1 -1 -1 1 -0 -1 -1 -0 -0 -1 -1 -0 -0 -1 0 -0 1 -1 2 -0 1 0 -1 1 1 -0 -0 -0 -1 -1 -0 1 1 1 0 0 -0
2 -1 -1 -0 -1 -0 2 -9 11 0 3 3 -1 0 0 0 -1 -0 -2 -2 -0 0 -0 1 -0 -0 -2 -2 0 -1 0 -0 -1 1 1 -0 -0 -1 -1 -0 -0 -1 -0 0 1 1 1 1 1
1 -1 -3 -1 -1 -0 4 -7 10 -5 1 3 3 1 -1 -1 0 -1 -2 -1 0 -1 -1 -1 -2 0 -0 -2 2 0 1 -1 -0 -0 0 -1 -1 -1 -1 1 0 0 0 0 1 1 1 0 1
-0 1 -4 -5 -3 -1 -0 -5 2 0 -1 3 3 4 0 1 4 1 3 1 -0 -1 -1 1 1 2 0 -2 0 1 2 1 1 1 1 -1 -1 -0 -1 -1 -1 0 1 0 0 1 0 2 2
-0 -0 1 -9 -4 -1 0 -5 -1 -3 -4 1 0 0 -3 -2 2 3 3 2 0 -0 0 2 0 0 -1 -0 -1 2 3 -1 1 1 0 1 -1 1 1 -0 0 -0 -0 0 -0 1 1 1 1
4 1 2 -6 -1 -4 6 -1 -2 4 -1 -1 2 0 2 2 -1 -1 0 3 3 2 2 2 2 3 2 2 3 2 0 2 -1 -1 -1 0 -1 1 1 -0 0 -0 0 1 0 -0 0 0 -0
-1 2 -0 2 -11 -6 -1 -3 -1 2 -3 -0 -5 -2 -2 -2 1 2 0 -1 -0 -0 1 1 0 2 3 -1 -0 4 3 0 1 1 -0 -1 -1 0 0 0 0 0 0 1 1 0 1 1 0
0 -0 0 -2 -3 -7 -7 5 4 -2 5 1 4 -0 -0 -3 -4 -2 1 2 -2 -3 -1 0 0 1 3 1 2 1 1 0 -1 2 -1 0 -1 -1 1 0 -1 0 2 1 1 1 0 1 1
1 1 1 -2 -2 -2 -4 2 -4 2 -1 -1 -1 0 -1 -1 -3 -4 -3 -1 2 2 1 1 2 -2 1 1 2 1 -0 3 -3 -1 3 -1 2 0 1 3 -2 0 0 0 1 2 -0 -1 -0
Height
5821 5822 5823 5823 5825 5822 5821 5823 5823 5823 5823 5823 5825 5825 5826 5827 5829 5833 5832 5832 5833 5833 5833 5834 5834 5835 5836 5837 5837 5838 5838 5839 5839 5838 5839 5839 5838 5838 5837 5837 5836 5836 5835 5834 5833 5832 5830 5829 5826
5820 5821 5822 5822 5822 5820 5822 5823 5821 5822 5823 5823 5825 5825 5825 5826 5827 5829 5831 5830 5831 5832 5832 5833 5833 5834 5834 5835 5836 5836 5836 5837 5837 5838 5838 5838 5838 5837 5836 5836 5835 5835 5835 5834 5833 5832 5831 5830 5828
5818 5819 5820 5820 5818 5818 5821 5821 5820 5821 5822 5822 5824 5825 5824 5825 5826 5828 5829 5829 5830 5830 5831 5831 5831 5832 5832 5833 5834 5834 5834 5835 5835 5836 5836 5837 5836 5836 5835 5835 5835 5834 5834 5833 5832 5832 5831 5830 5828
5815 5817 5818 5818 5815 5817 5819 5819 5818 5820 5820 5821 5821 5823 5824 5823 5824 5826 5827 5827 5827 5828 5828 5829 5829 5830 5830 5830 5831 5832 5832 5833 5833 5834 5834 5835 5835 5835 5834 5834 5834 5833 5833 5832 5831 5831 5830 5830 5829
5811 5812 5814 5815 5811 5814 5816 5815 5815 5817 5817 5819 5819 5819 5821 5820 5821 5823 5824 5825 5825 5825 5826 5826 5827 5827 5828 5828 5829 5829 5830 5830 5831 5831 5831 5832 5832 5832 5832 5832 5832 5832 5832 5831 5831 5830 5829 5829 5828
5807 5808 5809 5809 5807 5810 5812 5811 5812 5815 5814 5816 5816 5816 5818 5817 5818 5819 5822 5822 5821 5822 5823 5823 5824 5825 5825 5826 5826 5827 5827 5828 5828 5828 5829 5829 5829 5829 5829 5830 5830 5830 5830 5830 5830 5829 5829 5828 5828
5804 5804 5804 5804 5803 5805 5809 5807 5807 5810 5812 5811 5813 5813 5814 5813 5814 5815 5818 5819 5818 5818 5820 5820 5821 5821 5822 5823 5823 5823 5824 5824 5825 5825 5825 5826 5826 5827 5827 5827 5827 5827 5827 5827 5828 5828 5827 5827 5827
5800 5800 5800 5800 5798 5799 5803 5803 5802 5804 5807 5807 5809 5810 5809 5809 5809 5810 5814 5815 5815 5815 5815 5816 5817 5817 5818 5819 5819 5820 5820 5820 5821 5821 5821 5822 5822 5823 5823 5824 5824 5824 5824 5824 5824 5825 5825 5825 5824
5797 5797 5796 5795 5796 5797 5796 5797 5797 5799 5801 5802 5805 5805 5805 5805 5806 5806 5808 5810 5811 5811 5811 5812 5813 5813 5814 5814 5815 5815 5816 5816 5817 5817 5817 5817 5818 5818 5819 5819 5820 5820 5820 5821 5821 5821 5822 5822 5821
5794 5793 5793 5791 5791 5792 5791 5793 5792 5795 5796 5798 5799 5799 5800 5800 5801 5802 5802 5805 5807 5807 5806 5807 5807 5807 5808 5809 5810 5811 5811 5812 5812 5812 5812 5812 5813 5813 5814 5814 5815 5815 5816 5816 5817 5817 5817 5818 5818
5790 5789 5788 5786 5786 5788 5787 5788 5788 5790 5793 5793 5793 5795 5796 5796 5796 5797 5798 5798 5800 5802 5801 5802 5802 5802 5803 5804 5805 5805 5806 5807 5807 5807 5807 5807 5807 5808 5808 5809 5809 5810 5811 5811 5812 5812 5813 5813 5814
5786 5785 5784 5783 5783 5783 5783 5784 5785 5786 5789 5789 5788 5789 5790 5791 5791 5792 5793 5793 5794 5795 5796 5796 5797 5797 5798 5799 5800 5800 5800 5801 5801 5801 5801 5801 5801 5802 5802 5803 5804 5805 5805 5806 5806 5807 5808 5808 5809
5783 5782 5781 5780 5780 5780 5780 5780 5781 5782 5783 5785 5785 5785 5785 5786 5786 5786 5787 5787 5788 5789 5790 5791 5791 5792 5793 5793 5793 5793 5794 5795 5795 5795 5795 5795 5796 5796 5796 5797 5798 5799 5800 5800 5801 5802 5802 5803 5803
5781 5780 5779 5778 5778 5778 5778 5778 5778 5780 5779 5781 5781 5781 5782 5782 5782 5783 5783 5784 5784 5785 5786 5786 5787 5787 5788 5788 5788 5789 5789 5789 5790 5790 5790 5790 5790 5791 5791 5791 5792 5793 5794 5794 5795 5796 5797 5797 5798
5778 5778 5777 5777 5777 5776 5777 5777 5777 5776 5777 5777 5778 5778 5778 5778 5778 5779 5779 5780 5780 5781 5781 5782 5782 5783 5783 5783 5783 5784 5784 5784 5784 5784 5784 5784 5785 5785 5785 5786 5786 5786 5787 5788 5789 5790 5791 5792 5792
5775 5775 5775 5774 5775 5774 5775 5775 5773 5774 5774 5774 5774 5774 5774 5774 5774 5774 5774 5775 5776 5775 5776 5776 5776 5777 5778 5778 5778 5779 5778 5778 5779 5779 5779 5779 5779 5779 5780 5780 5780 5780 5780 5781 5782 5783 5784 5785 5786
5772 5772 5772 5772 5772 5771 5772 5772 5771 5770 5771 5771 5771 5770 5770 5770 5770 5769 5769 5769 5770 5770 5770 5771 5771 5772 5772 5773 5773 5773 5773 5773 5773 5773 5772 5772 5772 5772 5773 5773 5773 5774 5774 5774 5775 5776 5777 5777 5778
5768 5768 5768 5769 5769 5768 5768 5768 5769 5769 5768 5767 5767 5766 5765 5765 5765 5764 5764 5764 5765 5765 5765 5766 5766 5767 5767 5767 5767 5767 5767 5767 5766 5766 5766 5766 5765 5765 5766 5766 5767 5767 5767 5768 5768 5769 5769 5770 5770
5763 5764 5764 5765 5765 5764 5765 5765 5764 5764 5764 5763 5761 5762 5761 5760 5760 5760 5759 5759 5760 5759 5760 5760 5760 5761 5760 5760 5760 5760 5760 5760 5759 5759 5759 5758 5758 5758 5758 5758 5759 5759 5760 5761 5761 5762 5762 5762 5762
5759 5759 5759 5759 5759 5758 5759 5762 5760 5758 5759 5758 5756 5756 5756 5755 5754 5754 5754 5754 5754 5754 5753 5754 5754 5754 5753 5753 5753 5753 5753 5752 5752 5752 5751 5751 5750 5750 5750 5750 5750 5751 5751 5752 5753 5753 5754 5754 5754
5753 5754 5753 5753 5752 5751 5752 5755 5755 5753 5751 5751 5750 5749 5749 5748 5748 5747 5747 5747 5747 5746 5746 5747 5747 5746 5746 5746 5746 5745 5745 5744 5744 5743 5743 5742 5742 5741 5741 5741 5741 5742 5742 5743 5744 5744 5745 5746 5746
5747 5747 5746 5745 5744 5744 5746 5743 5749 5747 5744 5743 5741 5740 5741 5741 5741 5740 5740 5740 5740 5739 5739 5739 5738 5738 5738 5738 5738 5737 5737 5736 5736 5735 5734 5734 5734 5733 5733 5732 5732 5733 5733 5734 5734 5735 5735 5736 5737
5741 5740 5739 5738 5736 5735 5739 5733 5740 5739 5738 5737 5734 5733 5733 5733 5732 5732 5731 5732 5732 5732 5731 5731 5730 5730 5730 5729 5730 5729 5729 5728 5727 5727 5726 5725 5724 5724 5723 5723 5722 5723 5723 5724 5725 5725 5726 5727 5727
5733 5733 5731 5730 5729 5727 5730 5729 5729 5729 5729 5729 5728 5727 5724 5724 5724 5724 5724 5723 5723 5723 5723 5722 5722 5721 5721 5720 5721 5720 5720 5719 5719 5718 5717 5716 5715 5714 5713 5713 5712 5713 5713 5714 5714 5715 5716 5716 5717
5726 5726 5723 5722 5721 5721 5719 5718 5720 5719 5719 5719 5719 5719 5718 5716 5716 5716 5715 5714 5714 5714 5713 5713 5713 5712 5711 5710 5710 5710 5710 5709 5708 5708 5707 5705 5705 5704 5703 5702 5702 5702 5702 5703 5703 5704 5705 5706 5707
5719 5718 5717 5712 5711 5711 5710 5708 5709 5708 5707 5707 5708 5708 5707 5707 5706 5705 5704 5704 5704 5703 5702 5703 5702 5701 5700 5699 5699 5699 5698 5697 5697 5696 5695 5695 5693 5692 5692 5691 5690 5690 5690 5691 5692 5693 5694 5694 5695
5711 5709 5708 5705 5703 5700 5700 5700 5698 5698 5696 5696 5695 5695 5696 5696 5695 5694 5693 5692 5691 5691 5690 5690 5689 5688 5687 5687 5686 5686 5685 5685 5684 5683 5682 5682 5681 5681 5680 5679 5679 5679 5679 5679 5680 5680 5682 5683 5684
5701 5699 5698 5696 5693 5691 5691 5689 5687 5686 5685 5684 5682 5681 5681 5682 5682 5681 5680 5679 5678 5677 5676 5675 5674 5673 5673 5672 5672 5673 5672 5671 5671 5670 5669 5668 5668 5668 5668 5667 5667 5667 5667 5667 5668 5668 5669 5670 5671
5691 5689 5687 5685 5683 5681 5679 5679 5676 5676 5675 5674 5672 5669 5667 5666 5666 5666 5665 5664 5663 5662 5662 5661 5659 5659 5659 5658 5658 5658 5658 5657 5656 5656 5655 5654 5654 5654 5654 5654 5654 5654 5654 5654 5655 5656 5656 5657 5658
5679 5677 5676 5673 5673 5670 5669 5669 5665 5664 5663 5660 5658 5657 5655 5654 5651 5650 5649 5649 5648 5647 5647 5646 5645 5644 5644 5643 5642 5642 5642 5642 5641 5641 5642 5641 5641 5640 5640 5640 5639 5640 5641 5641 5642 5642 5642 5643 5644